| time (UTC) | temp F | wind direction | speed MPH | gust MPH | rain 1hr in | rain 24hr in | rain mn in | humidity % | barometer mb |
| 20260502170518 | 67 | 272 | 1.0 | 2.0 | 0.00 | 0.00 | 0.00 | 58 | 1021.6 |
| 20260502164001 | 68 | 8 | 3.0 | 7.0 | 0.00 | 0.00 | 0.00 | 56 | 1021.8 |
| 20260502163457 | 67 | 308 | 3.0 | 5.0 | 0.00 | 0.00 | 0.00 | 56 | 1021.5 |
| 20260502162954 | 67 | 21 | 1.0 | 2.0 | 0.00 | 0.00 | 0.00 | 57 | 1021.7 |
| 20260502162451 | 67 | 34 | 1.0 | 2.0 | 0.00 | 0.00 | 0.00 | 56 | 1022.1 |
| 20260502161948 | 67 | 40 | 3.0 | 5.0 | 0.00 | 0.00 | 0.00 | 58 | 1021.8 |
| 20260502161445 | 67 | 66 | 2.0 | 3.0 | 0.00 | 0.00 | 0.00 | 59 | 1021.5 |
| 20260502160943 | 66 | 78 | 3.0 | 5.0 | 0.00 | 0.00 | 0.00 | 59 | 1021.8 |
| 20260502160440 | 66 | 125 | 1.0 | 2.0 | 0.00 | 0.00 | 0.00 | 60 | 1021.7 |
| 20260502151924 | 62 | 337 | 2.0 | 2.0 | 0.00 | 0.00 | 0.00 | 69 | 1021.0 |
| 20260502151420 | 63 | 68 | 2.0 | 5.0 | 0.00 | 0.00 | 0.00 | 71 | 1021.4 |
| 20260502150918 | 63 | 34 | 2.0 | 3.0 | 0.00 | 0.00 | 0.00 | 70 | 1021.0 |
| 20260502150414 | 62 | 23 | 2.0 | 2.0 | 0.00 | 0.00 | 0.00 | 70 | 1021.1 |
| 20260502130300 | 51 | 62 | 0.0 | 0.0 | 0.00 | 0.00 | 0.00 | 94 | 1019.9 |
| 20260502123746 | 49 | 48 | 0.0 | 0.0 | 0.00 | 0.00 | 0.00 | 96 | 1019.6 |
| 20260502123243 | 49 | 0 | 1.0 | 2.0 | 0.00 | 0.00 | 0.00 | 96 | 1019.4 |
| 20260502122739 | 49 | 43 | 0.0 | 1.0 | 0.00 | 0.00 | 0.00 | 96 | 1019.5 |
| 20260502122235 | 49 | 16 | 2.0 | 2.0 | 0.00 | 0.00 | 0.00 | 96 | 1019.3 |
| 20260502121734 | 48 | 64 | 0.0 | 1.0 | 0.00 | 0.00 | 0.00 | 96 | 1019.0 |
| 20260502121231 | 48 | 43 | 0.0 | 1.0 | 0.00 | 0.00 | 0.00 | 96 | 1019.0 |
| 20260502120727 | 48 | 62 | 0.0 | 0.0 | 0.00 | 0.00 | 0.00 | 96 | 1019.0 |
| 20260502120224 | 48 | 38 | 1.0 | 1.0 | 0.00 | 0.00 | 0.00 | 96 | 1018.9 |
| 20260502115722 | 48 | 42 | 0.0 | 1.0 | 0.00 | 0.00 | 0.00 | 96 | 1018.5 |
| 20260502115219 | 48 | 65 | 0.0 | 0.0 | 0.00 | 0.00 | 0.00 | 96 | 1018.8 |
| 20260502114714 | 48 | 22 | 0.0 | 1.0 | 0.00 | 0.00 | 0.00 | 96 | 1018.7 |
| 20260502114212 | 48 | 53 | 0.0 | 0.0 | 0.00 | 0.00 | 0.00 | 96 | 1018.7 |
| 20260502113709 | 48 | 34 | 1.0 | 2.0 | 0.00 | 0.00 | 0.00 | 96 | 1018.9 |
| 20260502113207 | 48 | 58 | 0.0 | 1.0 | 0.00 | 0.00 | 0.00 | 96 | 1018.6 |
| 20260502112705 | 49 | 54 | 0.0 | 1.0 | 0.00 | 0.00 | 0.00 | 96 | 1018.6 |
| 20260502112202 | 49 | 18 | 3.0 | 3.0 | 0.00 | 0.00 | 0.00 | 96 | 1018.6 |
| 20260502111659 | 49 | 70 | 0.0 | 1.0 | 0.00 | 0.00 | 0.00 | 96 | 1018.7 |
| 20260502111157 | 49 | 46 | 2.0 | 3.0 | 0.00 | 0.00 | 0.00 | 96 | 1018.6 |
| 20260502110654 | 49 | 326 | 3.0 | 5.0 | 0.00 | 0.00 | 0.00 | 96 | 1018.5 |
| 20260502110151 | 49 | 25 | 3.0 | 6.0 | 0.00 | 0.00 | 0.00 | 96 | 1018.3 |
| 20260502105649 | 49 | 49 | 3.0 | 3.0 | 0.00 | 0.00 | 0.00 | 96 | 1018.5 |
| 20260502105146 | 49 | 20 | 1.0 | 2.0 | 0.00 | 0.00 | 0.00 | 96 | 1018.6 |
| 20260502104643 | 49 | 352 | 3.0 | 5.0 | 0.00 | 0.00 | 0.00 | 96 | 1018.3 |
| 20260502104141 | 49 | 345 | 4.0 | 5.0 | 0.00 | 0.00 | 0.00 | 96 | 1018.0 |
| 20260502103638 | 49 | 353 | 3.0 | 5.0 | 0.00 | 0.00 | 0.00 | 96 | 1017.9 |
| 20260502103136 | 49 | 17 | 1.0 | 1.0 | 0.00 | 0.00 | 0.00 | 96 | 1018.0 |
| 20260502102632 | 49 | 42 | 2.0 | 5.0 | 0.00 | 0.00 | 0.00 | 96 | 1018.0 |
| 20260502102129 | 49 | 31 | 3.0 | 5.0 | 0.00 | 0.00 | 0.00 | 97 | 1018.0 |
| 20260502101627 | 49 | 65 | 0.0 | 0.0 | 0.00 | 0.00 | 0.00 | 97 | 1017.9 |
| 20260502101125 | 49 | 62 | 0.0 | 0.0 | 0.00 | 0.00 | 0.00 | 97 | 1017.8 |
| 20260502100624 | 49 | 17 | 3.0 | 3.0 | 0.00 | 0.00 | 0.00 | 97 | 1017.7 |
| 20260502100121 | 49 | 55 | 0.0 | 0.0 | 0.00 | 0.00 | 0.00 | 97 | 1017.7 |
| 20260502091055 | 49 | 51 | 0.0 | 0.0 | 0.00 | 0.00 | 0.00 | 97 | 1016.9 |
| 20260502090552 | 49 | 68 | 0.0 | 1.0 | 0.00 | 0.00 | 0.00 | 97 | 1016.7 |
| 20260502071446 | 50 | 16 | 1.0 | 2.0 | 0.00 | 0.00 | 0.00 | 97 | 1016.4 |
| 20260502070944 | 51 | 35 | 2.0 | 3.0 | 0.00 | 0.00 | 0.00 | 97 | 1016.5 |
| 20260502070442 | 51 | 78 | 1.0 | 1.0 | 0.00 | 0.00 | 0.00 | 97 | 1016.6 |
| 20260502065941 | 51 | 44 | 1.0 | 2.0 | 0.00 | 0.00 | 0.00 | 97 | 1016.6 |
| 20260502065439 | 51 | 26 | 1.0 | 1.0 | 0.00 | 0.00 | 0.00 | 97 | 1016.6 |
| 20260502064936 | 51 | 49 | 1.0 | 1.0 | 0.00 | 0.00 | 0.00 | 97 | 1016.5 |
| 20260502064434 | 51 | 48 | 0.0 | 0.0 | 0.00 | 0.00 | 0.00 | 97 | 1016.7 |
| 20260502063931 | 51 | 43 | 0.0 | 0.0 | 0.00 | 0.00 | 0.00 | 97 | 1016.4 |
| 20260502063429 | 51 | 43 | 1.0 | 1.0 | 0.00 | 0.00 | 0.00 | 97 | 1016.5 |
| 20260502062926 | 51 | 48 | 3.0 | 5.0 | 0.00 | 0.00 | 0.00 | 97 | 1016.4 |
| 20260502062423 | 51 | 17 | 1.0 | 1.0 | 0.00 | 0.00 | 0.00 | 97 | 1016.3 |
| 20260502061922 | 51 | 67 | 0.0 | 1.0 | 0.00 | 0.00 | 0.00 | 96 | 1016.5 |
| 20260502061420 | 51 | 63 | 0.0 | 1.0 | 0.00 | 0.00 | 0.00 | 96 | 1016.2 |
| 20260502060915 | 51 | 57 | 0.0 | 0.0 | 0.00 | 0.00 | 0.00 | 96 | 1016.3 |
| 20260502060410 | 51 | 66 | 0.0 | 0.0 | 0.00 | 0.00 | 0.00 | 96 | 1016.4 |
| 20260502055908 | 51 | 59 | 3.0 | 3.0 | 0.00 | 0.00 | 0.00 | 96 | 1016.2 |
| 20260502055405 | 51 | 49 | 3.0 | 3.0 | 0.00 | 0.00 | 0.00 | 96 | 1016.4 |
| 20260502054900 | 51 | 128 | 2.0 | 2.0 | 0.00 | 0.00 | 0.00 | 96 | 1016.2 |
| 20260502054357 | 51 | 55 | 0.0 | 1.0 | 0.00 | 0.00 | 0.00 | 96 | 1016.3 |
| 20260502053854 | 51 | 16 | 1.0 | 2.0 | 0.00 | 0.00 | 0.00 | 96 | 1016.3 |
| 20260502053351 | 51 | 55 | 0.0 | 0.0 | 0.00 | 0.00 | 0.00 | 96 | 1016.6 |
| 20260502052849 | 51 | 25 | 0.0 | 1.0 | 0.00 | 0.00 | 0.00 | 96 | 1016.5 |
| 20260502052347 | 51 | 354 | 1.0 | 2.0 | 0.00 | 0.00 | 0.00 | 96 | 1016.7 |
| 20260502051844 | 51 | 66 | 0.0 | 1.0 | 0.00 | 0.00 | 0.00 | 96 | 1016.8 |
| 20260502051343 | 51 | 43 | 2.0 | 2.0 | 0.00 | 0.00 | 0.00 | 96 | 1016.6 |
| 20260502050839 | 51 | 48 | 1.0 | 2.0 | 0.00 | 0.00 | 0.00 | 96 | 1016.5 |
| 20260502050335 | 51 | 61 | 0.0 | 0.0 | 0.00 | 0.00 | 0.00 | 96 | 1016.5 |
| 20260502045833 | 51 | 26 | 1.0 | 1.0 | 0.00 | 1.97 | 1.97 | 96 | 1016.6 |
| 20260502045329 | 51 | 32 | 0.0 | 1.0 | 0.00 | 1.97 | 1.97 | 96 | 1016.4 |
| 20260502044826 | 52 | 45 | 2.0 | 5.0 | 0.00 | 1.97 | 1.97 | 96 | 1016.2 |
| 20260502044322 | 52 | 59 | 2.0 | 3.0 | 0.00 | 1.97 | 1.97 | 96 | 1016.2 |
| 20260502043820 | 52 | 92 | 2.0 | 3.0 | 0.00 | 1.97 | 1.97 | 96 | 1016.2 |
| 20260502043317 | 52 | 54 | 0.0 | 1.0 | 0.00 | 1.97 | 1.97 | 96 | 1016.3 |
| 20260502042817 | 52 | 39 | 3.0 | 3.0 | 0.00 | 1.97 | 1.97 | 95 | 1016.2 |
| 20260502042314 | 52 | 84 | 1.0 | 1.0 | 0.00 | 1.97 | 1.97 | 95 | 1016.2 |
| 20260502041812 | 52 | 69 | 1.0 | 1.0 | 0.00 | 1.97 | 1.97 | 95 | 1016.0 |
| 20260502041309 | 52 | 92 | 1.0 | 1.0 | 0.00 | 1.97 | 1.97 | 95 | 1016.3 |
| 20260502040806 | 52 | 49 | 3.0 | 6.0 | 0.00 | 1.97 | 1.97 | 95 | 1016.2 |
| 20260502040303 | 52 | 54 | 1.0 | 2.0 | 0.00 | 1.97 | 1.97 | 95 | 1016.4 |
| 20260502035759 | 53 | 65 | 3.0 | 3.0 | 0.00 | 1.97 | 1.97 | 95 | 1016.1 |
| 20260502035255 | 53 | 36 | 5.0 | 7.0 | 0.00 | 1.97 | 1.97 | 95 | 1016.3 |
| 20260502034753 | 52 | 46 | 3.0 | 6.0 | 0.00 | 1.97 | 1.97 | 95 | 1016.1 |
| 20260502034251 | 52 | 47 | 0.0 | 1.0 | 0.00 | 1.97 | 1.97 | 95 | 1016.0 |
| 20260502033749 | 52 | 40 | 2.0 | 2.0 | 0.00 | 1.97 | 1.97 | 95 | 1016.1 |
| 20260502033246 | 52 | 32 | 1.0 | 3.0 | 0.00 | 1.97 | 1.97 | 95 | 1015.9 |
| 20260502032743 | 52 | 63 | 0.0 | 1.0 | 0.00 | 1.97 | 1.97 | 96 | 1016.1 |
| 20260502032239 | 52 | 4 | 5.0 | 8.0 | 0.00 | 1.97 | 1.97 | 96 | 1016.0 |
| 20260502031737 | 52 | 148 | 2.0 | 3.0 | 0.00 | 1.97 | 1.97 | 96 | 1015.9 |
| 20260502031235 | 52 | 37 | 1.0 | 3.0 | 0.00 | 1.97 | 1.97 | 97 | 1015.9 |
| 20260502030733 | 52 | 68 | 1.0 | 3.0 | 0.00 | 1.97 | 1.97 | 97 | 1016.0 |
| 20260502030231 | 52 | 69 | 3.0 | 5.0 | 0.00 | 1.97 | 1.97 | 97 | 1015.9 |
| 20260502025728 | 52 | 124 | 1.0 | 1.0 | 0.00 | 1.97 | 1.97 | 98 | 1015.4 |
| 20260502025226 | 52 | 60 | 2.0 | 2.0 | 0.00 | 1.97 | 1.97 | 98 | 1015.7 |
| 20260502024723 | 52 | 336 | 1.0 | 2.0 | 0.00 | 1.97 | 1.97 | 98 | 1015.3 |
| 20260502024221 | 52 | 38 | 4.0 | 13.0 | 0.00 | 1.97 | 1.97 | 98 | 1014.9 |
| 20260502023719 | 51 | 357 | 3.0 | 6.0 | 0.00 | 1.97 | 1.97 | 99 | 1015.2 |
| 20260502023216 | 51 | 155 | 3.0 | 5.0 | 0.00 | 1.97 | 1.97 | 99 | 1014.9 |
| 20260502022714 | 51 | 70 | 3.0 | 6.0 | 0.00 | 1.97 | 1.97 | 99 | 1014.7 |
| 20260502022210 | 51 | 94 | 5.0 | 7.0 | 0.00 | 1.97 | 1.97 | 99 | 1014.7 |
| 20260502021707 | 51 | 323 | 4.0 | 6.0 | 0.00 | 1.97 | 1.97 | 99 | 1014.6 |
| 20260502021204 | 51 | 49 | 4.0 | 6.0 | 0.00 | 1.97 | 1.97 | 99 | 1014.6 |
| 20260502020701 | 51 | 34 | 4.0 | 10.0 | 0.00 | 1.97 | 1.97 | 99 | 1014.5 |
| 20260502020158 | 51 | 8 | 4.0 | 7.0 | 0.00 | 1.97 | 1.97 | 99 | 1014.8 |
| 20260502015656 | 51 | 330 | 2.0 | 2.0 | 0.00 | 1.97 | 1.97 | 99 | 1014.6 |
| 20260502015152 | 51 | 97 | 1.0 | 2.0 | 0.00 | 1.97 | 1.97 | 99 | 1014.3 |
| 20260502014650 | 51 | 24 | 3.0 | 5.0 | 0.00 | 1.97 | 1.97 | 99 | 1014.4 |
| 20260502014147 | 52 | 141 | 4.0 | 9.0 | 0.00 | 1.97 | 1.97 | 99 | 1014.1 |
| 20260502013643 | 52 | 103 | 5.0 | 10.0 | 0.00 | 1.97 | 1.97 | 99 | 1014.1 |
| 20260502013138 | 52 | 125 | 3.0 | 8.0 | 0.00 | 1.97 | 1.97 | 99 | 1014.1 |
| 20260502012636 | 53 | 28 | 5.0 | 9.0 | 0.00 | 1.97 | 1.97 | 99 | 1014.2 |
| 20260502012134 | 53 | 18 | 2.0 | 2.0 | 0.00 | 1.97 | 1.97 | 99 | 1013.9 |
| 20260502011630 | 53 | 120 | 1.0 | 3.0 | 0.00 | 1.97 | 1.97 | 99 | 1014.0 |
| 20260502011126 | 54 | 59 | 0.0 | 0.0 | 0.00 | 1.97 | 1.97 | 99 | 1013.9 |
| 20260502010624 | 54 | 18 | 4.0 | 6.0 | 0.00 | 1.97 | 1.97 | 99 | 1013.7 |
| 20260502010120 | 54 | 47 | 1.0 | 2.0 | 0.00 | 1.97 | 1.97 | 99 | 1013.7 |
| 20260502005618 | 54 | 62 | 1.0 | 2.0 | 0.00 | 1.97 | 1.97 | 99 | 1013.4 |
| 20260502005115 | 54 | 46 | 2.0 | 2.0 | 0.00 | 1.97 | 1.97 | 99 | 1013.4 |
| 20260502004611 | 54 | 142 | 4.0 | 5.0 | 0.00 | 1.97 | 1.97 | 99 | 1013.3 |
| 20260502004108 | 54 | 53 | 0.0 | 0.0 | 0.00 | 1.97 | 1.97 | 99 | 1013.3 |
| 20260502003606 | 54 | 10 | 2.0 | 2.0 | 0.00 | 1.97 | 1.97 | 99 | 1013.4 |
| 20260502003102 | 54 | 4 | 4.0 | 7.0 | 0.00 | 1.97 | 1.97 | 99 | 1013.3 |
| 20260502002558 | 54 | 57 | 1.0 | 2.0 | 0.00 | 1.97 | 1.97 | 99 | 1012.9 |
| 20260502002056 | 54 | 87 | 6.0 | 9.0 | 0.00 | 1.97 | 1.97 | 99 | 1012.9 |
| 20260502001554 | 54 | 92 | 4.0 | 5.0 | 0.00 | 1.97 | 1.97 | 99 | 1012.8 |
| 20260502001050 | 54 | 71 | 1.0 | 3.0 | 0.00 | 1.97 | 1.97 | 99 | 1012.6 |
| 20260502000549 | 55 | 63 | 2.0 | 3.0 | 0.00 | 1.97 | 1.97 | 99 | 1012.8 |
| 20260502000046 | 55 | 343 | 3.0 | 7.0 | 0.00 | 1.97 | 1.97 | 99 | 1012.4 |
| 20260501235541 | 55 | 7 | 5.0 | 7.0 | 0.00 | 1.97 | 1.97 | 99 | 1012.1 |
| 20260501235038 | 55 | 44 | 0.0 | 0.0 | 0.00 | 1.97 | 1.97 | 99 | 1012.3 |
| 20260501234533 | 55 | 340 | 5.0 | 9.0 | 0.00 | 1.97 | 1.97 | 99 | 1012.1 |
| 20260501234032 | 55 | 85 | 1.0 | 1.0 | 0.00 | 1.97 | 1.97 | 99 | 1012.2 |
| 20260501233529 | 55 | 71 | 1.0 | 1.0 | 0.00 | 1.97 | 1.97 | 99 | 1011.9 |
| 20260501233026 | 55 | 43 | 5.0 | 8.0 | 0.00 | 1.97 | 1.97 | 99 | 1011.7 |
| 20260501232522 | 55 | 52 | 3.0 | 5.0 | 0.07 | 1.97 | 1.97 | 99 | 1012.1 |
| 20260501232020 | 55 | 7 | 1.0 | 6.0 | 0.07 | 1.97 | 1.97 | 99 | 1011.4 |
| 20260501231517 | 56 | 88 | 2.0 | 2.0 | 0.00 | 1.96 | 1.96 | 99 | 1011.4 |
| 20260501231016 | 56 | 75 | 2.0 | 3.0 | 0.00 | 1.96 | 1.96 | 99 | 1011.6 |
| 20260501230514 | 56 | 341 | 1.0 | 2.0 | 0.00 | 1.96 | 1.96 | 99 | 1011.6 |
| 20260501230011 | 56 | 69 | 4.0 | 6.0 | 0.00 | 1.96 | 1.96 | 99 | 1011.3 |
| 20260501225510 | 56 | 89 | 2.0 | 2.0 | 0.00 | 1.96 | 1.96 | 99 | 1011.5 |
| 20260501225004 | 56 | 74 | 4.0 | 6.0 | 0.00 | 1.96 | 1.96 | 99 | 1011.3 |
| 20260501224503 | 56 | 124 | 2.0 | 2.0 | 0.00 | 1.96 | 1.96 | 99 | 1011.2 |
| 20260501223959 | 56 | 68 | 0.0 | 0.0 | 0.00 | 1.96 | 1.96 | 99 | 1011.5 |
| 20260501223455 | 57 | 87 | 0.0 | 0.0 | 0.00 | 1.96 | 1.96 | 99 | 1011.5 |
| 20260501222951 | 56 | 50 | 0.0 | 0.0 | 0.00 | 1.96 | 1.96 | 99 | 1011.5 |
| 20260501222448 | 56 | 69 | 2.0 | 3.0 | 0.00 | 1.96 | 1.96 | 99 | 1011.4 |
| 20260501221944 | 57 | 12 | 1.0 | 2.0 | 0.00 | 1.96 | 1.96 | 99 | 1011.8 |
| 20260501221442 | 57 | 62 | 1.0 | 2.0 | 0.00 | 1.96 | 1.96 | 99 | 1011.4 |
| 20260501220940 | 57 | 355 | 0.0 | 2.0 | 0.00 | 1.96 | 1.96 | 99 | 1011.0 |
| 20260501220437 | 57 | 357 | 5.0 | 10.0 | 0.00 | 1.96 | 1.96 | 99 | 1010.8 |
| 20260501215933 | 57 | 2 | 2.0 | 5.0 | 0.00 | 1.96 | 1.96 | 99 | 1010.9 |
| 20260501215430 | 57 | 47 | 3.0 | 6.0 | 0.05 | 1.96 | 1.96 | 99 | 1011.2 |
| 20260501214925 | 57 | 10 | 2.0 | 3.0 | 0.05 | 1.96 | 1.96 | 99 | 1010.8 |
| 20260501214421 | 57 | 160 | 1.0 | 1.0 | 0.05 | 1.96 | 1.96 | 99 | 1010.6 |
| 20260501213916 | 56 | 59 | 3.0 | 6.0 | 0.00 | 1.95 | 1.95 | 99 | 1010.8 |
| 20260501213414 | 57 | 349 | 2.0 | 3.0 | 0.07 | 1.95 | 1.95 | 99 | 1010.8 |
| 20260501212909 | 57 | 12 | 5.0 | 8.0 | 0.07 | 1.95 | 1.95 | 99 | 1010.9 |
| 20260501212406 | 57 | 33 | 1.0 | 2.0 | 0.05 | 1.94 | 1.94 | 99 | 1011.0 |
| 20260501211903 | 57 | 328 | 3.0 | 6.0 | 0.05 | 1.94 | 1.94 | 99 | 1011.1 |
| 20260501211400 | 57 | 331 | 4.0 | 5.0 | 0.07 | 1.93 | 1.93 | 99 | 1010.7 |
| 20260501210858 | 57 | 42 | 1.0 | 2.0 | 0.14 | 1.93 | 1.93 | 99 | 1010.9 |
| 20260501210354 | 57 | 32 | 4.0 | 5.0 | 0.26 | 1.93 | 1.93 | 99 | 1010.8 |
| 20260501205851 | 57 | 44 | 3.0 | 3.0 | 0.17 | 1.91 | 1.91 | 99 | 1010.9 |
| 20260501205348 | 57 | 357 | 4.0 | 7.0 | 0.05 | 1.89 | 1.89 | 99 | 1010.7 |
| 20260501204845 | 57 | 38 | 3.0 | 5.0 | 0.00 | 1.88 | 1.88 | 99 | 1010.6 |
| 20260501204341 | 57 | 76 | 3.0 | 3.0 | 0.07 | 1.88 | 1.88 | 99 | 1010.6 |
| 20260501203837 | 57 | 19 | 6.0 | 9.0 | 0.19 | 1.88 | 1.88 | 99 | 1010.7 |
| 20260501203335 | 58 | 18 | 3.0 | 5.0 | 0.24 | 1.87 | 1.87 | 99 | 1010.5 |
| 20260501202831 | 58 | 95 | 3.0 | 5.0 | 0.17 | 1.85 | 1.85 | 99 | 1011.1 |
| 20260501202328 | 58 | 350 | 5.0 | 7.0 | 0.12 | 1.83 | 1.83 | 99 | 1010.8 |
| 20260501201825 | 58 | 59 | 6.0 | 7.0 | 0.07 | 1.82 | 1.82 | 99 | 1010.4 |
| 20260501201322 | 58 | 26 | 3.0 | 3.0 | 0.00 | 1.81 | 1.81 | 99 | 1010.1 |
| 20260501200819 | 58 | 75 | 2.0 | 2.0 | 0.00 | 1.81 | 1.81 | 99 | 1009.8 |
| 20260501200316 | 59 | 51 | 3.0 | 3.0 | 0.00 | 1.81 | 1.81 | 99 | 1009.5 |
| 20260501195814 | 59 | 98 | 1.0 | 2.0 | 0.00 | 1.81 | 1.81 | 99 | 1009.3 |
| 20260501195309 | 59 | 48 | 3.0 | 3.0 | 0.00 | 1.81 | 1.81 | 99 | 1009.3 |
| 20260501194805 | 59 | 82 | 3.0 | 6.0 | 0.00 | 1.81 | 1.81 | 99 | 1009.1 |
| 20260501194301 | 59 | 335 | 1.0 | 2.0 | 0.00 | 1.81 | 1.81 | 99 | 1009.4 |
| 20260501193758 | 59 | 332 | 2.0 | 2.0 | 0.00 | 1.81 | 1.81 | 99 | 1009.0 |
| 20260501193257 | 59 | 102 | 1.0 | 1.0 | 0.00 | 1.81 | 1.81 | 99 | 1009.1 |
| 20260501192753 | 59 | 100 | 2.0 | 2.0 | 0.00 | 1.81 | 1.81 | 99 | 1008.9 |
| 20260501192250 | 59 | 64 | 1.0 | 2.0 | 0.00 | 1.81 | 1.81 | 99 | 1008.9 |
| 20260501191747 | 59 | 36 | 4.0 | 6.0 | 0.00 | 1.81 | 1.81 | 99 | 1009.0 |
| 20260501191245 | 59 | 58 | 2.0 | 2.0 | 0.00 | 1.81 | 1.81 | 99 | 1009.5 |
| 20260501190741 | 59 | 299 | 2.0 | 5.0 | 0.00 | 1.81 | 1.81 | 99 | 1009.8 |
| 20260501190237 | 59 | 18 | 1.0 | 2.0 | 0.00 | 1.81 | 1.81 | 99 | 1010.0 |
| 20260501185733 | 59 | 68 | 2.0 | 5.0 | 0.05 | 1.81 | 1.81 | 99 | 1010.2 |
| 20260501185229 | 59 | 73 | 3.0 | 6.0 | 0.05 | 1.81 | 1.81 | 99 | 1010.4 |
| 20260501184725 | 58 | 334 | 5.0 | 7.0 | 0.00 | 1.80 | 1.80 | 99 | 1011.2 |
| 20260501184220 | 59 | 61 | 5.0 | 8.0 | 0.00 | 1.80 | 1.80 | 99 | 1011.3 |
| 20260501183717 | 59 | 49 | 4.0 | 6.0 | 0.00 | 1.80 | 1.80 | 99 | 1010.9 |
| 20260501183214 | 59 | 62 | 0.0 | 1.0 | 0.00 | 1.80 | 1.80 | 99 | 1010.5 |
| 20260501182710 | 59 | 57 | 1.0 | 2.0 | 0.00 | 1.80 | 1.80 | 99 | 1010.5 |
| 20260501182207 | 59 | 67 | 3.0 | 5.0 | 0.00 | 1.80 | 1.80 | 99 | 1010.2 |
| 20260501181704 | 59 | 64 | 5.0 | 8.0 | 0.00 | 1.80 | 1.80 | 99 | 1010.4 |
| 20260501181201 | 59 | 76 | 3.0 | 6.0 | 0.00 | 1.80 | 1.80 | 99 | 1010.5 |
| 20260501180659 | 59 | 276 | 1.0 | 1.0 | 0.00 | 1.80 | 1.80 | 99 | 1010.4 |
| 20260501180155 | 59 | 59 | 1.0 | 2.0 | 0.07 | 1.80 | 1.80 | 99 | 1010.6 |
| 20260501175652 | 60 | 80 | 0.0 | 1.0 | 0.07 | 1.80 | 1.80 | 99 | 1010.5 |
| 20260501175149 | 59 | 60 | 2.0 | 5.0 | 0.14 | 1.80 | 1.80 | 99 | 1011.0 |
| 20260501174645 | 59 | 35 | 3.0 | 3.0 | 0.42 | 1.79 | 1.79 | 99 | 1010.9 |
| 20260501174143 | 60 | 340 | 3.0 | 6.0 | 0.47 | 1.77 | 1.77 | 99 | 1011.2 |
| 20260501173640 | 59 | 1 | 4.0 | 5.0 | 0.24 | 1.72 | 1.72 | 99 | 1011.0 |
| 20260501173137 | 59 | 41 | 1.0 | 2.0 | 0.19 | 1.69 | 1.69 | 99 | 1012.1 |
| 20260501172633 | 59 | 32 | 4.0 | 5.0 | 0.47 | 1.68 | 1.68 | 99 | 1011.2 |